Simultaneous Nadir Overpasses (SNOs) Predictions

Prediction of SNOs between GOES-17 and NOAA-19 Satellite Orbit:

Table of predicted SNOs for the next 14.0 days since TLE Epoch: 1/7/2023
Index Date Time (GOES-17) GOES-17 Lat,Lon NOAA-19 Lat,Lon Distance(km) Time Diff (sec)
1 01/07/2023 17:27:15 0.00,-137.34 0.23,-138.22 100.82 80
2 01/08/2023 17:17:59 0.01,-137.34 -0.45,-135.31 230.65 80
3 01/11/2023 05:35:43 -0.01,-137.31 -0.69,-140.15 324.45 80
4 01/12/2023 05:26:27 -0.01,-137.30 0.01,-137.25 6.88 80
5 01/13/2023 05:14:31 -0.02,-137.30 0.65,-134.33 337.96 80
6 01/15/2023 17:32:13 0.01,-137.28 0.46,-139.16 215.43 80
7 01/16/2023 17:22:57 0.01,-137.26 -0.23,-136.26 114.91 80
8 01/17/2023 17:11:01 0.01,-137.25 -0.86,-133.34 445.00 80
9 01/19/2023 05:40:39 -0.01,-137.21 -0.90,-141.09 443.11 80
10 01/20/2023 05:28:43 -0.01,-137.18 -0.25,-138.18 113.54 80
